{"data":{"norad_id":63212,"epoch":"2026-09-22T17:35:32.704224Z","epoch_age_seconds":118366,"freshness":"FRESH","line1":"1 63212U 25052C   26265.73301741  .00181337  00000+0  13475-2 0  9999","line2":"2 63212  97.3651 171.3320 0008582 112.4724 247.7449 15.72250876 85708","mean_motion":15.72250876,"eccentricity":0.0008582,"inclination_deg":97.3651,"raan_deg":171.332,"arg_perigee_deg":112.4724,"mean_anomaly_deg":247.7449,"bstar":0.0013475,"rev_number":8570,"period_min":91.588436806188,"perigee_km":346.68932666153,"apogee_km":358.24173284359,"semimajor_km":6730.6025297526,"source":"CELESTRAK","updated_at":"2026-09-23T09:00:21.897580Z"}}